Simultaneous Nadir Overpasses (SNOs) Predictions

Prediction of SNOs between NOAA-20 and AQUA Satellite Orbit:

Table of predicted SNOs for the next 14.0 days since TLE Epoch: 10/9/2021
Index Date (NOAA-20) Time (NOAA-20) Lat,Lon (NOAA-20) SZA (NOAA-20 ) Date (AQUA) Time (AQUA) Lat,Lon (AQUA) SZA (AQUA ) Distance(km) Time Diff (sec)
1 10/09/2021 05:56:23 75.97, -30.33 102.79 10/09/2021 05:56:56 75.98, -30.23 102.74 2.71 33
2 10/09/2021 06:46:47 -76.95, 140.62 78.37 10/09/2021 06:46:03 -76.96, 140.71 78.35 2.61 44
3 10/11/2021 22:13:01 76.69, 88.07 102.89 10/11/2021 22:13:10 76.68, 87.97 102.91 2.87 9
4 10/11/2021 23:03:35 -77.21,-102.50 77.74 10/11/2021 23:02:26 -77.22,-102.41 77.70 2.53 69
5 10/14/2021 13:39:35 -75.61, 32.73 74.92 10/14/2021 13:40:35 -75.62, 32.82 75.00 2.70 60
6 10/14/2021 14:29:56 76.65,-156.33 103.88 10/14/2021 14:29:39 76.66,-156.24 103.88 2.47 17
7 10/17/2021 05:56:18 -76.11, 150.18 74.57 10/17/2021 05:56:53 -76.12, 150.21 74.62 1.13 35
8 10/17/2021 06:46:41 77.04, -38.98 104.34 10/17/2021 06:45:59 77.05, -38.95 104.37 0.85 42
9 10/19/2021 22:13:00 -76.61, -92.26 74.23 10/19/2021 22:13:10 -76.60, -92.31 74.23 1.46 10
10 10/19/2021 23:03:25 77.42, 78.45 104.79 10/19/2021 23:02:18 77.42, 78.38 104.87 1.79 67
11 10/22/2021 13:39:28 75.68,-147.03 107.73 10/22/2021 13:40:29 75.69,-146.95 107.66 2.16 61



Historial Predications of SNOs between NOAA-20 and AQUA
